Starlink 32661

operational
NORAD ID: 62899 Int'l Des: 2025-024 Owner: SPXS Country: US Constellation: starlink
LEOCIRCULAR

Starlink 32661について

説明を読み込み中...

リアルタイム位置

3D地球を読み込み中...

次回通過

高度履歴

Altitude vs Time

uPlot chart will show altitude changes over time

軌道要素

1 62899U 25024W 26036.69636153 .00039621 00000-0 14390-2 0 9993
2 62899 43.0038 145.9864 0002182 283.2458 76.8150 15.27638634 57370
Epoch: Feb 5, 2026 • Age: 14 hours

現在のステータス

高度 482.8 km
速度 7.63 km/s
衛星直下点 22.70°N, 72.09°W
打ち上げ日 Feb 4, 2025
運用期間 1 years
タイプ internet

技術仕様

分類 Payload
質量 730.00 kg
乾燥質量 700.00 kg
総質量 730.00 kg
長さ 0.30 m
直径 4.10 m
スパン 29.00 m
形状 Box + pan
製造者 SPXS
バスタイプ Starlink V2M
フェーズステータス In Orbit
所有者/国 SPXS/US

大規模コンステレーション

Loading constellations...